Weather Roundup
Issued by NWS Springfield, MO

Home | Current Version | Previous Version | Text Only | Print | Product List | Glossary On
Versions: 1 2 3 4 5 6 7 8 9 10 11 12 13 14 15 16 17 18 19 20 21 22 23 24 25 26 27 28 29 30 31 32 33 34 35 36 37 38 39 40 41 42 43 44 45 46 47 48 49 50
000
NZUS99 KSGF 270707
HRRSGF

HOURLY WEATHER
NATIONAL WEATHER SERVICE SPRINGFIELD MO
200 AM CDT MON MAR 27 2017

......SGF CWA......

CITY           SKY/WX    TMP DP  RH WIND       PRES   REMARKS
SPRINGFIELD    LGT RAIN  56  54  93 E14       29.78F
JOPLIN         HVY RAIN  57  56  96 W8        29.83R FOG
WEST PLAINS    CLOUDY    57  50  77 E6        29.85F
ROLLA          CLOUDY    53  50  89 E5        29.87F
OSAGE BEACH    LGT RAIN N/A N/A N/A CALM      29.90F
BRANSON          N/A     54  54 100 E9        29.81F

......SURROUNDING SGF CWA......

CITY           SKY/WX    TMP DP  RH WIND       PRES   REMARKS
CHANUTE        CLOUDY    53  50  89 E16G26    29.71F
PARSONS        LGT RAIN  54  51  90 E10G20    29.72F
COFFEYVILLE    LGT RAIN  54  51  90 E12       29.76S
EMPORIA        CLOUDY    47  47 100 N10       29.82F FOG
GROVE OK       CLOUDY    61  55  82 N7G18     29.82R
ROGERS AR      CLOUDY    57  54  89 SE12      29.78F
SILOAM SPRINGS CLOUDY    57  52  82 SE9       29.76R
HARRISON AR    TSTM      55  55 100 E16       29.80F FOG
NEAR YELLVILLE CLOUDY    57  50  77 NW8       29.87R THUNDER

......KANSAS AND MISSOURI......

CITY           SKY/WX    TMP DP  RH WIND       PRES   REMARKS
KANSAS CTY INT RAIN      46  45  96 E9        29.90F FOG
DOWNTOWN KC    HVY RAIN  48  45  89 NE8       29.90S FOG
COLUMBIA       LGT RAIN  50  49  96 NE8       29.91F
SEDALIA        CLOUDY    51  49  92 E10       29.88F
ST JOSEPH      LGT RAIN  46  45  96 N5        29.91F
ST LOUIS       CLOUDY    53  48  83 NE3       29.93F
SPIRIT OF STL  PTCLDY    50  49  96 CALM      29.92F
KIRKSVILLE     CLOUDY    47  44  90 N5        29.93S
WICHITA        CLOUDY    49  48  97 NW12      29.84R
TOPEKA         LGT RAIN  46  46 100 NE14      29.83F
OLATHE         HVY RAIN  46  46 100 NE14      29.86F FOG

......TENNESSEE......

CITY           SKY/WX    TMP DP  RH WIND       PRES   REMARKS
MEMPHIS        CLOUDY    64  54  69 SE5       29.90F
NASHVILLE      MOCLDY    61  54  77 SE6       29.98S

......ARKANSAS.......

CITY           SKY/WX    TMP DP  RH WIND       PRES   REMARKS
FAYETTEVILLE   CLOUDY    57  55  93 VRB3      29.77F
FT SMITH       CLOUDY    62  54  74 E9        29.75R
LITTLE ROCK    CLOUDY    66  58  75 S8        29.84S

......OKLAHOMA.......

CITY           SKY/WX    TMP DP  RH WIND       PRES   REMARKS
TULSA          CLOUDY    62  55  77 NE8       29.73F
PONCA CITY     CLOUDY    53  49  86 N14       29.77R
MCALESTER      CLOUDY    65  56  72 S10G16    29.74R
OKLAHOMA CITY  CLOUDY    54  50  86 NW23G30   29.76R

......IOWA............

CITY           SKY/WX    TMP DP  RH WIND       PRES   REMARKS
DES MOINES     CLOUDY    45  44  97 N3        29.93R FOG
QUAD CITIES    CLOUDY    48  45  89 SW5       29.92F

......ILLINOIS........

CITY           SKY/WX    TMP DP  RH WIND       PRES   REMARKS
QUINCY         CLOUDY    47  45  93 SE5       29.94S
CHICAGO        CLOUDY    52  50  93 W8        29.87S FOG




USA.gov is the U.S. government's official web portal to all federal, state and local government web resources and services.